Time,TemperatureF,DewpointF,PressureIn,WindDirection,WindDirectionDegrees,WindSpeedMPH,WindSpeedGustMPH,Humidity,HourlyPrecipIn,Conditions,Clouds,dailyrainin,SoftwareType,DateUTC
2013-04-01 00:00:00,46.1,41.8,29.70,WSW,254,0.0,10.0,85,0.02,,,0.04,WUHU216DAVISVP2,2013-04-01 04:00:00,
2013-04-01 00:05:00,46.1,41.5,29.70,WSW,254,4.0,10.0,84,0.02,,,0.00,WUHU216DAVISVP2,2013-04-01 04:05:00,
2013-04-01 00:10:00,46.3,41.4,29.70,SW,220,2.0,14.0,83,0.02,,,0.00,WUHU216DAVISVP2,2013-04-01 04:10:00,
2013-04-01 00:12:00,46.4,41.5,29.70,West,273,4.0,14.0,83,0.02,,,0.00,WUHU216DAVISVP2,2013-04-01 04:12:00,
2013-04-01 00:17:00,46.7,41.2,29.70,West,264,6.0,16.0,81,0.01,,,0.00,WUHU216DAVISVP2,2013-04-01 04:17:00,
2013-04-01 00:22:00,47.0,41.5,29.69,West,263,4.0,16.0,81,0.00,,,0.00,WUHU216DAVISVP2,2013-04-01 04:22:00,
2013-04-01 00:27:00,47.2,41.1,29.69,WNW,290,4.0,12.0,79,0.00,,,0.00,WUHU216DAVISVP2,2013-04-01 04:27:00,
2013-04-01 00:32:00,47.4,40.9,29.69,West,261,0.0,16.0,78,0.00,,,0.00,WUHU216DAVISVP2,2013-04-01 04:32:00,
2013-04-01 00:37:00,47.6,41.1,29.69,West,269,0.0,16.0,78,0.00,,,0.00,WUHU216DAVISVP2,2013-04-01 04:37:00,
2013-04-01 00:42:00,47.5,41.0,29.69,West,273,4.0,16.0,78,0.00,,,0.00,WUHU216DAVISVP2,2013-04-01 04:42:00,
2013-04-01 00:47:00,47.6,41.1,29.69,West,262,4.0,14.0,78,0.00,,,0.00,WUHU216DAVISVP2,2013-04-01 04:47:00,
2013-04-01 00:52:00,47.5,40.7,29.69,West,263,4.0,14.0,77,0.00,,,0.00,WUHU216DAVISVP2,2013-04-01 04:52:00,
2013-04-01 00:57:00,47.5,40.7,29.69,West,264,8.0,16.0,77,0.00,,,0.00,WUHU216DAVISVP2,2013-04-01 04:57:00,
2013-04-01 01:05:00,47.3,40.8,29.69,WSW,238,2.0,16.0,78,0.00,,,0.00,WUHU216DAVISVP2,2013-04-01 05:05:00,
2013-04-01 01:10:00,47.3,40.8,29.69,SW,224,6.0,22.0,78,0.00,,,0.00,WUHU216DAVISVP2,2013-04-01 05:10:00,
2013-04-01 01:15:00,47.2,40.7,29.69,West,275,8.0,22.0,78,0.00,,,0.00,WUHU216DAVISVP2,2013-04-01 05:15:00,
2013-04-01 01:20:00,47.0,40.5,29.69,West,261,10.0,12.0,78,0.00,,,0.00,WUHU216DAVISVP2,2013-04-01 05:20:00,
2013-04-01 01:25:00,47.1,40.6,29.69,WNW,289,10.0,20.0,78,0.00,,,0.00,WUHU216DAVISVP2,2013-04-01 05:25:00,
2013-04-01 01:30:00,46.9,40.8,29.69,WNW,293,8.0,20.0,79,0.00,,,0.00,WUHU216DAVISVP2,2013-04-01 05:30:00,
2013-04-01 01:35:00,47.0,40.5,29.69,West,265,6.0,18.0,78,0.00,,,0.00,WUHU216DAVISVP2,2013-04-01 05:35:00,
2013-04-01 01:41:00,46.8,40.7,29.70,WNW,302,4.0,18.0,79,0.00,,,0.00,WUHU216DAVISVP2,2013-04-01 05:41:00,
2013-04-01 01:46:00,46.7,40.6,29.70,West,264,6.0,16.0,79,0.00,,,0.00,WUHU216DAVISVP2,2013-04-01 05:46:00,
2013-04-01 01:51:00,46.6,40.5,29.70,West,272,8.0,16.0,79,0.00,,,0.00,WUHU216DAVISVP2,2013-04-01 05:51:00,
2013-04-01 01:56:00,46.6,40.5,29.70,WNW,297,4.0,14.0,79,0.00,,,0.00,WUHU216DAVISVP2,2013-04-01 05:56:00,
2013-04-01 02:01:00,46.7,40.6,29.70,WNW,298,8.0,16.0,79,0.00,,,0.00,WUHU216DAVISVP2,2013-04-01 06:01:00,
2013-04-01 02:06:00,46.9,40.4,29.70,WNW,294,2.0,24.0,78,0.00,,,0.00,WUHU216DAVISVP2,2013-04-01 06:06:00,
2013-04-01 02:11:00,47.0,40.5,29.71,WNW,286,10.0,24.0,78,0.00,,,0.00,WUHU216DAVISVP2,2013-04-01 06:11:00,
2013-04-01 02:16:00,47.0,40.2,29.71,WNW,298,10.0,16.0,77,0.00,,,0.00,WUHU216DAVISVP2,2013-04-01 06:16:00,
2013-04-01 02:21:00,46.9,40.1,29.71,WSW,248,10.0,16.0,77,0.00,,,0.00,WUHU216DAVISVP2,2013-04-01 06:21:00,
2013-04-01 02:27:00,46.6,39.8,29.71,NW,307,10.0,18.0,77,0.00,,,0.00,WUHU216DAVISVP2,2013-04-01 06:27:00,
2013-04-01 02:32:00,45.9,38.8,29.71,WNW,303,12.0,18.0,76,0.00,,,0.00,WUHU216DAVISVP2,2013-04-01 06:32:00,
2013-04-01 02:37:00,44.5,38.1,29.72,West,275,12.0,26.0,78,0.00,,,0.00,WUHU216DAVISVP2,2013-04-01 06:37:00,
2013-04-01 02:42:00,43.6,37.9,29.72,NW,317,6.0,26.0,80,0.00,,,0.00,WUHU216DAVISVP2,2013-04-01 06:42:00,
2013-04-01 02:47:00,42.5,37.1,29.73,West,280,8.0,24.0,81,0.00,,,0.00,WUHU216DAVISVP2,2013-04-01 06:47:00,
2013-04-01 02:52:00,41.9,37.1,29.73,WNW,283,6.0,24.0,83,0.00,,,0.00,WUHU216DAVISVP2,2013-04-01 06:52:00,
2013-04-01 02:57:00,41.5,37.0,29.73,NNW,347,4.0,18.0,84,0.00,,,0.00,WUHU216DAVISVP2,2013-04-01 06:57:00,
2013-04-01 03:02:00,41.2,36.7,29.73,WNW,282,4.0,14.0,84,0.00,,,0.00,WUHU216DAVISVP2,2013-04-01 07:02:00,
2013-04-01 03:07:00,41.1,36.9,29.74,WNW,302,4.0,14.0,85,0.00,,,0.00,WUHU216DAVISVP2,2013-04-01 07:07:00,
2013-04-01 03:12:00,40.9,36.7,29.74,NW,318,8.0,12.0,85,0.00,,,0.00,WUHU216DAVISVP2,2013-04-01 07:12:00,
2013-04-01 03:18:00,40.9,36.4,29.75,WSW,257,6.0,16.0,84,0.00,,,0.00,WUHU216DAVISVP2,2013-04-01 07:18:00,
2013-04-01 03:23:00,40.8,35.7,29.75,NW,311,16.0,26.0,82,0.00,,,0.00,WUHU216DAVISVP2,2013-04-01 07:23:00,
2013-04-01 03:28:00,40.3,34.3,29.75,North,355,8.0,26.0,79,0.00,,,0.00,WUHU216DAVISVP2,2013-04-01 07:28:00,
2013-04-01 03:33:00,40.0,34.0,29.75,NNW,345,8.0,24.0,79,0.00,,,0.00,WUHU216DAVISVP2,2013-04-01 07:33:00,
2013-04-01 03:38:00,39.7,33.4,29.75,WNW,300,4.0,22.0,78,0.00,,,0.00,WUHU216DAVISVP2,2013-04-01 07:38:00,
2013-04-01 03:43:00,39.4,32.8,29.75,NW,315,10.0,18.0,77,0.00,,,0.00,WUHU216DAVISVP2,2013-04-01 07:43:00,
2013-04-01 03:48:00,39.0,32.1,29.76,NW,309,6.0,18.0,76,0.00,,,0.00,WUHU216DAVISVP2,2013-04-01 07:48:00,
2013-04-01 03:53:00,38.8,31.6,29.76,WNW,285,6.0,18.0,75,0.00,,,0.00,WUHU216DAVISVP2,2013-04-01 07:53:00,
2013-04-01 03:58:00,38.6,31.4,29.76,NNW,327,4.0,20.0,75,0.00,,,0.00,WUHU216DAVISVP2,2013-04-01 07:58:00,
2013-04-01 04:03:00,38.2,30.7,29.76,West,273,8.0,20.0,74,0.00,,,0.00,WUHU216DAVISVP2,2013-04-01 08:03:00,
2013-04-01 04:08:00,38.0,30.5,29.76,WNW,303,10.0,20.0,74,0.00,,,0.00,WUHU216DAVISVP2,2013-04-01 08:08:00,
2013-04-01 04:13:00,37.7,30.5,29.76,WNW,296,10.0,22.0,75,0.00,,,0.00,WUHU216DAVISVP2,2013-04-01 08:13:00,
2013-04-01 04:18:00,37.6,30.4,29.76,WNW,290,8.0,22.0,75,0.00,,,0.00,WUHU216DAVISVP2,2013-04-01 08:18:00,
2013-04-01 04:23:00,37.5,30.3,29.77,WSW,258,6.0,24.0,75,0.00,,,0.00,WUHU216DAVISVP2,2013-04-01 08:23:00,
2013-04-01 04:28:00,37.3,30.2,29.77,WNW,282,6.0,24.0,75,0.00,,,0.00,WUHU216DAVISVP2,2013-04-01 08:28:00,
2013-04-01 04:33:00,37.2,30.1,29.77,WNW,287,12.0,20.0,75,0.00,,,0.00,WUHU216DAVISVP2,2013-04-01 08:33:00,
2013-04-01 04:38:00,37.2,30.4,29.77,NNW,333,6.0,22.0,76,0.00,,,0.00,WUHU216DAVISVP2,2013-04-01 08:38:00,
2013-04-01 04:43:00,37.1,30.3,29.78,West,259,10.0,22.0,76,0.00,,,0.00,WUHU216DAVISVP2,2013-04-01 08:43:00,
2013-04-01 04:48:00,37.1,30.3,29.78,WNW,294,16.0,22.0,76,0.00,,,0.00,WUHU216DAVISVP2,2013-04-01 08:48:00,
2013-04-01 04:53:00,37.1,30.3,29.78,West,279,14.0,22.0,76,0.00,,,0.00,WUHU216DAVISVP2,2013-04-01 08:53:00,
2013-04-01 04:58:00,37.2,30.4,29.79,NW,311,8.0,22.0,76,0.00,,,0.00,WUHU216DAVISVP2,2013-04-01 08:58:00,
2013-04-01 05:03:00,37.2,30.4,29.79,WNW,300,10.0,32.0,76,0.00,,,0.00,WUHU216DAVISVP2,2013-04-01 09:03:00,
2013-04-01 05:08:00,37.1,30.9,29.80,NW,309,8.0,32.0,78,0.00,,,0.00,WUHU216DAVISVP2,2013-04-01 09:08:00,
2013-04-01 05:14:00,36.8,30.9,29.80,NNW,338,10.0,32.0,79,0.00,,,0.00,WUHU216DAVISVP2,2013-04-01 09:14:00,
2013-04-01 05:19:00,36.4,31.1,29.81,WNW,301,14.0,24.0,81,0.00,,,0.00,WUHU216DAVISVP2,2013-04-01 09:19:00,
2013-04-01 05:24:00,35.9,31.2,29.81,NW,321,8.0,24.0,83,0.00,,,0.00,WUHU216DAVISVP2,2013-04-01 09:24:00,
2013-04-01 05:29:00,35.6,30.9,29.81,NW,307,10.0,24.0,83,0.00,,,0.00,WUHU216DAVISVP2,2013-04-01 09:29:00,
2013-04-01 05:34:00,35.4,30.7,29.81,NNW,330,2.0,16.0,83,0.00,,,0.00,WUHU216DAVISVP2,2013-04-01 09:34:00,
2013-04-01 05:39:00,35.1,30.4,29.82,NW,319,14.0,18.0,83,0.00,,,0.00,WUHU216DAVISVP2,2013-04-01 09:39:00,
2013-04-01 05:44:00,34.9,30.5,29.82,NNE,28,6.0,18.0,84,0.00,,,0.00,WUHU216DAVISVP2,2013-04-01 09:44:00,
2013-04-01 05:49:00,34.7,30.3,29.83,WNW,291,6.0,18.0,84,0.00,,,0.00,WUHU216DAVISVP2,2013-04-01 09:49:00,
2013-04-01 05:54:00,34.5,30.1,29.83,WNW,303,4.0,18.0,84,0.00,,,0.00,WUHU216DAVISVP2,2013-04-01 09:54:00,
2013-04-01 05:59:00,34.4,30.0,29.83,NNE,30,2.0,18.0,84,0.00,,,0.00,WUHU216DAVISVP2,2013-04-01 09:59:00,
2013-04-01 06:04:00,34.3,30.2,29.83,NW,323,4.0,18.0,85,0.00,,,0.00,WUHU216DAVISVP2,2013-04-01 10:04:00,
2013-04-01 06:09:00,34.2,30.1,29.84,NW,311,6.0,18.0,85,0.00,,,0.00,WUHU216DAVISVP2,2013-04-01 10:09:00,
2013-04-01 06:14:00,34.1,30.3,29.84,NW,306,8.0,16.0,86,0.00,,,0.00,WUHU216DAVISVP2,2013-04-01 10:14:00,
2013-04-01 06:19:00,33.9,30.1,29.84,North,5,12.0,16.0,86,0.00,,,0.00,WUHU216DAVISVP2,2013-04-01 10:19:00,
2013-04-01 06:24:00,33.6,30.4,29.84,NW,307,0.0,16.0,88,0.00,,,0.00,WUHU216DAVISVP2,2013-04-01 10:24:00,
2013-04-01 06:29:00,33.4,30.5,29.85,NNW,328,8.0,14.0,89,0.00,,,0.00,WUHU216DAVISVP2,2013-04-01 10:29:00,
2013-04-01 06:34:00,33.0,29.8,29.85,NE,50,12.0,20.0,88,0.00,,,0.00,WUHU216DAVISVP2,2013-04-01 10:34:00,
2013-04-01 06:40:00,32.6,29.1,29.86,WNW,284,10.0,20.0,87,0.00,,,0.00,WUHU216DAVISVP2,2013-04-01 10:40:00,
2013-04-01 06:45:00,32.1,28.9,29.86,NW,320,2.0,20.0,88,0.00,,,0.00,WUHU216DAVISVP2,2013-04-01 10:45:00,
2013-04-01 06:50:00,31.9,29.0,29.86,NW,320,4.0,20.0,89,0.00,,,0.00,WUHU216DAVISVP2,2013-04-01 10:50:00,
2013-04-01 06:55:00,31.9,29.0,29.87,North,9,4.0,16.0,89,0.00,,,0.00,WUHU216DAVISVP2,2013-04-01 10:55:00,
2013-04-01 07:00:00,31.9,29.0,29.87,North,5,8.0,14.0,89,0.00,,,0.00,WUHU216DAVISVP2,2013-04-01 11:00:00,
2013-04-01 07:05:00,31.9,28.7,29.87,NNE,20,2.0,16.0,88,0.00,,,0.00,WUHU216DAVISVP2,2013-04-01 11:05:00,
2013-04-01 07:10:00,32.0,28.8,29.87,WNW,300,2.0,16.0,88,0.00,,,0.00,WUHU216DAVISVP2,2013-04-01 11:10:00,
2013-04-01 07:15:00,32.0,28.8,29.88,NW,313,12.0,12.0,88,0.00,,,0.00,WUHU216DAVISVP2,2013-04-01 11:15:00,
2013-04-01 07:20:00,32.1,28.4,29.88,West,269,10.0,14.0,86,0.00,,,0.00,WUHU216DAVISVP2,2013-04-01 11:20:00,
2013-04-01 07:25:00,32.3,27.4,29.88,NW,321,14.0,22.0,82,0.00,,,0.00,WUHU216DAVISVP2,2013-04-01 11:25:00,
2013-04-01 07:30:00,32.3,26.8,29.89,WNW,292,4.0,22.0,80,0.00,,,0.00,WUHU216DAVISVP2,2013-04-01 11:30:00,
2013-04-01 07:35:00,32.4,26.9,29.89,North,355,8.0,14.0,80,0.00,,,0.00,WUHU216DAVISVP2,2013-04-01 11:35:00,
2013-04-01 07:40:00,32.4,26.3,29.89,WNW,294,8.0,20.0,78,0.00,,,0.00,WUHU216DAVISVP2,2013-04-01 11:40:00,
2013-04-01 07:45:00,32.4,26.3,29.90,NW,307,2.0,20.0,78,0.00,,,0.00,WUHU216DAVISVP2,2013-04-01 11:45:00,
2013-04-01 07:50:00,32.4,26.0,29.90,WNW,284,16.0,18.0,77,0.00,,,0.00,WUHU216DAVISVP2,2013-04-01 11:50:00,
2013-04-01 07:55:00,32.3,25.9,29.91,North,360,12.0,20.0,77,0.00,,,0.00,WUHU216DAVISVP2,2013-04-01 11:55:00,
2013-04-01 08:00:00,32.3,25.9,29.91,NNW,331,4.0,20.0,77,0.00,,,0.00,WUHU216DAVISVP2,2013-04-01 12:00:00,
2013-04-01 08:05:00,32.3,25.9,29.91,North,355,6.0,16.0,77,0.00,,,0.00,WUHU216DAVISVP2,2013-04-01 12:05:00,
2013-04-01 08:10:00,32.4,26.3,29.92,NW,306,4.0,14.0,78,0.00,,,0.00,WUHU216DAVISVP2,2013-04-01 12:10:00,
2013-04-01 08:15:00,32.3,25.9,29.93,SSW,201,2.0,18.0,77,0.00,,,0.00,WUHU216DAVISVP2,2013-04-01 12:15:00,
2013-04-01 08:21:00,32.2,25.2,29.93,WNW,302,14.0,20.0,75,0.00,,,0.00,WUHU216DAVISVP2,2013-04-01 12:21:00,
2013-04-01 08:26:00,32.0,24.4,29.93,NNW,331,4.0,20.0,73,0.00,,,0.00,WUHU216DAVISVP2,2013-04-01 12:26:00,
2013-04-01 08:31:00,31.9,23.3,29.93,NW,315,6.0,22.0,70,0.00,,,0.00,WUHU216DAVISVP2,2013-04-01 12:31:00,
2013-04-01 08:36:00,31.7,23.4,29.94,NW,326,4.0,22.0,71,0.00,,,0.00,WUHU216DAVISVP2,2013-04-01 12:36:00,
2013-04-01 08:41:00,31.7,24.1,29.94,WNW,295,4.0,20.0,73,0.00,,,0.00,WUHU216DAVISVP2,2013-04-01 12:41:00,
2013-04-01 08:46:00,31.6,24.3,29.95,WNW,300,4.0,20.0,74,0.00,,,0.00,WUHU216DAVISVP2,2013-04-01 12:46:00,
2013-04-01 08:51:00,31.2,23.6,29.95,NW,315,14.0,22.0,73,0.00,,,0.00,WUHU216DAVISVP2,2013-04-01 12:51:00,
2013-04-01 08:57:00,30.8,22.9,29.95,NW,309,14.0,22.0,72,0.00,,,0.00,WUHU216DAVISVP2,2013-04-01 12:57:00,
2013-04-01 09:02:00,30.7,22.1,29.95,NNW,343,8.0,18.0,70,0.00,,,0.00,WUHU216DAVISVP2,2013-04-01 13:02:00,
2013-04-01 09:07:00,30.6,22.0,29.96,NW,305,14.0,18.0,70,0.00,,,0.00,WUHU216DAVISVP2,2013-04-01 13:07:00,
2013-04-01 09:12:00,30.5,21.6,29.96,NE,44,10.0,22.0,69,0.00,,,0.00,WUHU216DAVISVP2,2013-04-01 13:12:00,
2013-04-01 09:17:00,30.6,22.4,29.96,SE,141,4.0,22.0,71,0.00,,,0.00,WUHU216DAVISVP2,2013-04-01 13:17:00,
2013-04-01 09:22:00,30.9,22.0,29.96,NW,325,0.0,16.0,69,0.00,,,0.00,WUHU216DAVISVP2,2013-04-01 13:22:00,
2013-04-01 09:27:00,31.2,21.6,29.96,NNW,333,4.0,16.0,67,0.00,,,0.00,WUHU216DAVISVP2,2013-04-01 13:27:00,
2013-04-01 09:32:00,31.5,21.9,29.97,NNW,327,8.0,14.0,67,0.00,,,0.00,WUHU216DAVISVP2,2013-04-01 13:32:00,
2013-04-01 09:37:00,31.3,20.6,29.97,West,268,8.0,16.0,64,0.00,,,0.00,WUHU216DAVISVP2,2013-04-01 13:37:00,
2013-04-01 09:42:00,31.1,20.4,29.97,NW,317,10.0,26.0,64,0.00,,,0.00,WUHU216DAVISVP2,2013-04-01 13:42:00,
2013-04-01 09:47:00,31.0,19.6,29.97,WNW,288,10.0,26.0,62,0.00,,,0.00,WUHU216DAVISVP2,2013-04-01 13:47:00,
2013-04-01 09:52:00,31.1,20.0,29.97,NNE,23,8.0,22.0,63,0.00,,,0.00,WUHU216DAVISVP2,2013-04-01 13:52:00,
2013-04-01 09:58:00,30.9,19.8,29.97,NW,321,4.0,22.0,63,0.00,,,0.00,WUHU216DAVISVP2,2013-04-01 13:58:00,
2013-04-01 10:03:00,30.8,20.1,29.98,NW,315,14.0,22.0,64,0.00,,,0.00,WUHU216DAVISVP2,2013-04-01 14:03:00,
2013-04-01 10:08:00,30.8,19.7,29.98,NW,317,12.0,18.0,63,0.00,,,0.00,WUHU216DAVISVP2,2013-04-01 14:08:00,
2013-04-01 10:13:00,31.2,20.1,29.98,WNW,289,6.0,18.0,63,0.00,,,0.00,WUHU216DAVISVP2,2013-04-01 14:13:00,
2013-04-01 10:18:00,31.4,20.3,29.99,NNE,24,2.0,16.0,63,0.00,,,0.00,WUHU216DAVISVP2,2013-04-01 14:18:00,
2013-04-01 10:23:00,31.2,20.1,29.99,NNW,331,8.0,18.0,63,0.00,,,0.00,WUHU216DAVISVP2,2013-04-01 14:23:00,
2013-04-01 10:28:00,31.3,20.2,29.99,NNW,330,10.0,20.0,63,0.00,,,0.00,WUHU216DAVISVP2,2013-04-01 14:28:00,
2013-04-01 10:33:00,31.5,20.0,29.99,NE,40,20.0,26.0,62,0.00,,,0.00,WUHU216DAVISVP2,2013-04-01 14:33:00,
2013-04-01 10:38:00,31.7,20.6,29.99,NW,325,12.0,26.0,63,0.00,,,0.00,WUHU216DAVISVP2,2013-04-01 14:38:00,
2013-04-01 10:43:00,32.5,22.1,29.99,NW,313,6.0,16.0,65,0.00,,,0.00,WUHU216DAVISVP2,2013-04-01 14:43:00,
2013-04-01 10:48:00,32.2,20.7,29.99,NE,34,4.0,22.0,62,0.00,,,0.00,WUHU216DAVISVP2,2013-04-01 14:48:00,
2013-04-01 10:53:00,32.3,18.4,29.99,WSW,254,6.0,22.0,56,0.00,,,0.00,WUHU216DAVISVP2,2013-04-01 14:53:00,
2013-04-01 10:58:00,32.3,18.8,29.99,NE,51,4.0,24.0,57,0.00,,,0.00,WUHU216DAVISVP2,2013-04-01 14:58:00,
2013-04-01 11:03:00,32.6,19.5,30.00,WNW,290,10.0,24.0,58,0.00,,,0.00,WUHU216DAVISVP2,2013-04-01 15:03:00,
2013-04-01 11:08:00,32.6,19.1,30.00,WNW,302,10.0,22.0,57,0.00,,,0.00,WUHU216DAVISVP2,2013-04-01 15:08:00,
2013-04-01 11:13:00,32.4,19.7,30.00,NNW,347,10.0,22.0,59,0.00,,,0.00,WUHU216DAVISVP2,2013-04-01 15:13:00,
2013-04-01 11:18:00,32.7,20.4,30.00,ENE,71,10.0,22.0,60,0.00,,,0.00,WUHU216DAVISVP2,2013-04-01 15:18:00,
2013-04-01 11:23:00,32.3,19.6,30.00,NNW,333,12.0,22.0,59,0.00,,,0.00,WUHU216DAVISVP2,2013-04-01 15:23:00,
2013-04-01 11:28:00,31.9,19.2,30.00,West,263,16.0,22.0,59,0.00,,,0.00,WUHU216DAVISVP2,2013-04-01 15:28:00,
2013-04-01 11:33:00,32.5,20.2,30.01,West,281,8.0,22.0,60,0.00,,,0.00,WUHU216DAVISVP2,2013-04-01 15:33:00,
2013-04-01 11:38:00,32.6,17.3,30.01,NW,305,10.0,30.0,53,0.00,,,0.00,WUHU216DAVISVP2,2013-04-01 15:38:00,
2013-04-01 11:43:00,32.9,17.2,30.01,NNE,17,6.0,30.0,52,0.00,,,0.00,WUHU216DAVISVP2,2013-04-01 15:43:00,
2013-04-01 11:48:00,33.0,17.2,30.01,WNW,302,6.0,22.0,52,0.00,,,0.00,WUHU216DAVISVP2,2013-04-01 15:48:00,
2013-04-01 11:53:00,32.4,17.6,30.02,NW,317,16.0,22.0,54,0.00,,,0.00,WUHU216DAVISVP2,2013-04-01 15:53:00,
2013-04-01 11:58:00,32.0,18.5,30.02,West,281,10.0,20.0,57,0.00,,,0.00,WUHU216DAVISVP2,2013-04-01 15:58:00,
2013-04-01 12:03:00,32.5,17.7,30.02,NW,310,12.0,18.0,54,0.00,,,0.00,WUHU216DAVISVP2,2013-04-01 16:03:00,
2013-04-01 12:09:00,32.5,18.1,30.02,NW,312,16.0,22.0,55,0.00,,,0.00,WUHU216DAVISVP2,2013-04-01 16:09:00,
2013-04-01 12:14:00,32.6,16.4,30.02,NW,319,10.0,22.0,51,0.00,,,0.00,WUHU216DAVISVP2,2013-04-01 16:14:00,
2013-04-01 12:19:00,33.2,17.4,30.03,West,261,12.0,22.0,52,0.00,,,0.00,WUHU216DAVISVP2,2013-04-01 16:19:00,
2013-04-01 12:24:00,33.1,17.3,30.03,NNW,348,12.0,22.0,52,0.00,,,0.00,WUHU216DAVISVP2,2013-04-01 16:24:00,
2013-04-01 12:29:00,33.2,16.0,30.03,WNW,300,12.0,24.0,49,0.00,,,0.00,WUHU216DAVISVP2,2013-04-01 16:29:00,
2013-04-01 12:34:00,32.8,16.6,30.03,NW,326,12.0,24.0,51,0.00,,,0.00,WUHU216DAVISVP2,2013-04-01 16:34:00,
2013-04-01 12:39:00,32.6,15.9,30.03,WNW,286,12.0,20.0,50,0.00,,,0.00,WUHU216DAVISVP2,2013-04-01 16:39:00,
2013-04-01 12:44:00,32.4,16.7,30.03,West,277,12.0,18.0,52,0.00,,,0.00,WUHU216DAVISVP2,2013-04-01 16:44:00,
2013-04-01 12:49:00,32.7,17.4,30.03,WNW,302,16.0,18.0,53,0.00,,,0.00,WUHU216DAVISVP2,2013-04-01 16:49:00,
2013-04-01 12:54:00,32.8,17.1,30.03,North,5,2.0,18.0,52,0.00,,,0.00,WUHU216DAVISVP2,2013-04-01 16:54:00,
2013-04-01 12:59:00,32.9,17.2,30.03,NW,323,8.0,20.0,52,0.00,,,0.00,WUHU216DAVISVP2,2013-04-01 16:59:00,
2013-04-01 13:04:00,32.9,15.7,30.03,WNW,284,6.0,22.0,49,0.00,,,0.00,WUHU216DAVISVP2,2013-04-01 17:04:00,
2013-04-01 13:09:00,33.2,16.5,30.03,SW,227,18.0,22.0,50,0.00,,,0.00,WUHU216DAVISVP2,2013-04-01 17:09:00,
2013-04-01 13:14:00,33.5,16.8,30.03,NW,309,10.0,20.0,50,0.00,,,0.00,WUHU216DAVISVP2,2013-04-01 17:14:00,
2013-04-01 13:19:00,33.3,17.1,30.03,West,273,8.0,20.0,51,0.00,,,0.00,WUHU216DAVISVP2,2013-04-01 17:19:00,
2013-04-01 13:24:00,32.9,16.2,30.03,NW,306,8.0,20.0,50,0.00,,,0.00,WUHU216DAVISVP2,2013-04-01 17:24:00,
2013-04-01 13:29:00,33.1,16.9,30.03,WSW,240,12.0,22.0,51,0.00,,,0.00,WUHU216DAVISVP2,2013-04-01 17:29:00,
2013-04-01 13:34:00,33.1,16.9,30.03,WNW,297,8.0,22.0,51,0.00,,,0.00,WUHU216DAVISVP2,2013-04-01 17:34:00,
2013-04-01 13:39:00,33.1,17.8,30.04,NW,320,12.0,20.0,53,0.00,,,0.00,WUHU216DAVISVP2,2013-04-01 17:39:00,
2013-04-01 13:44:00,33.0,16.3,30.04,WNW,293,6.0,20.0,50,0.00,,,0.00,WUHU216DAVISVP2,2013-04-01 17:44:00,
2013-04-01 13:49:00,33.1,17.3,30.03,West,271,10.0,22.0,52,0.00,,,0.00,WUHU216DAVISVP2,2013-04-01 17:49:00,
2013-04-01 13:54:00,32.5,16.8,30.04,NW,320,14.0,22.0,52,0.00,,,0.00,WUHU216DAVISVP2,2013-04-01 17:54:00,
2013-04-01 13:59:00,32.8,17.1,30.04,NNW,328,6.0,20.0,52,0.00,,,0.00,WUHU216DAVISVP2,2013-04-01 17:59:00,
2013-04-01 14:04:00,33.4,17.6,30.04,WNW,302,14.0,16.0,52,0.00,,,0.00,WUHU216DAVISVP2,2013-04-01 18:04:00,
2013-04-01 14:09:00,33.5,18.6,30.04,NW,313,10.0,18.0,54,0.00,,,0.00,WUHU216DAVISVP2,2013-04-01 18:09:00,
2013-04-01 14:15:00,33.1,16.9,30.04,NW,306,12.0,20.0,51,0.00,,,0.00,WUHU216DAVISVP2,2013-04-01 18:15:00,
2013-04-01 14:20:00,33.1,17.3,30.04,NW,315,10.0,20.0,52,0.00,,,0.00,WUHU216DAVISVP2,2013-04-01 18:20:00,
2013-04-01 14:25:00,33.8,18.4,30.04,West,279,8.0,20.0,53,0.00,,,0.00,WUHU216DAVISVP2,2013-04-01 18:25:00,
2013-04-01 14:30:00,33.4,17.2,30.04,NNW,338,4.0,20.0,51,0.00,,,0.00,WUHU216DAVISVP2,2013-04-01 18:30:00,
2013-04-01 14:35:00,34.0,18.2,30.04,West,262,20.0,20.0,52,0.00,,,0.00,WUHU216DAVISVP2,2013-04-01 18:35:00,
2013-04-01 14:40:00,34.0,18.2,30.04,WNW,298,12.0,24.0,52,0.00,,,0.00,WUHU216DAVISVP2,2013-04-01 18:40:00,
2013-04-01 14:45:00,33.1,17.8,30.04,NW,320,10.0,24.0,53,0.00,,,0.00,WUHU216DAVISVP2,2013-04-01 18:45:00,
2013-04-01 14:50:00,32.6,16.4,30.04,WNW,295,8.0,24.0,51,0.00,,,0.00,WUHU216DAVISVP2,2013-04-01 18:50:00,
2013-04-01 14:55:00,32.8,17.1,30.04,North,349,10.0,22.0,52,0.00,,,0.00,WUHU216DAVISVP2,2013-04-01 18:55:00,
2013-04-01 15:00:00,33.3,18.4,30.04,West,260,10.0,22.0,54,0.00,,,0.00,WUHU216DAVISVP2,2013-04-01 19:00:00,
2013-04-01 15:05:00,33.5,17.7,30.04,NW,308,8.0,20.0,52,0.00,,,0.00,WUHU216DAVISVP2,2013-04-01 19:05:00,
2013-04-01 15:10:00,33.9,18.5,30.04,West,269,8.0,20.0,53,0.00,,,0.00,WUHU216DAVISVP2,2013-04-01 19:10:00,
2013-04-01 15:15:00,33.8,17.5,30.04,North,9,12.0,22.0,51,0.00,,,0.00,WUHU216DAVISVP2,2013-04-01 19:15:00,
2013-04-01 15:20:00,33.5,17.2,30.04,WNW,290,14.0,26.0,51,0.00,,,0.00,WUHU216DAVISVP2,2013-04-01 19:20:00,
2013-04-01 15:25:00,34.6,17.8,30.04,SSW,192,6.0,26.0,50,0.00,,,0.00,WUHU216DAVISVP2,2013-04-01 19:25:00,
2013-04-01 15:30:00,34.8,16.5,30.05,NW,315,6.0,20.0,47,0.00,,,0.00,WUHU216DAVISVP2,2013-04-01 19:30:00,
2013-04-01 15:35:00,34.5,16.7,30.05,West,271,12.0,22.0,48,0.00,,,0.00,WUHU216DAVISVP2,2013-04-01 19:35:00,
2013-04-01 15:40:00,34.6,16.3,30.05,NNE,31,4.0,22.0,47,0.00,,,0.00,WUHU216DAVISVP2,2013-04-01 19:40:00,
2013-04-01 15:46:00,34.9,17.6,30.05,West,263,6.0,22.0,49,0.00,,,0.00,WUHU216DAVISVP2,2013-04-01 19:46:00,
2013-04-01 15:51:00,35.7,17.3,30.05,WNW,295,18.0,22.0,47,0.00,,,0.00,WUHU216DAVISVP2,2013-04-01 19:51:00,
2013-04-01 15:56:00,35.7,17.8,30.05,West,267,10.0,20.0,48,0.00,,,0.00,WUHU216DAVISVP2,2013-04-01 19:56:00,
2013-04-01 16:01:00,35.5,16.6,30.05,WNW,294,12.0,20.0,46,0.00,,,0.00,WUHU216DAVISVP2,2013-04-01 20:01:00,
2013-04-01 16:06:00,35.3,16.5,30.05,WSW,257,10.0,20.0,46,0.00,,,0.00,WUHU216DAVISVP2,2013-04-01 20:06:00,
2013-04-01 16:11:00,35.6,15.7,30.05,NNW,336,16.0,20.0,44,0.00,,,0.00,WUHU216DAVISVP2,2013-04-01 20:11:00,
2013-04-01 16:16:00,35.3,15.4,30.05,North,355,16.0,22.0,44,0.00,,,0.00,WUHU216DAVISVP2,2013-04-01 20:16:00,
2013-04-01 16:21:00,35.3,15.9,30.05,North,355,10.0,22.0,45,0.00,,,0.00,WUHU216DAVISVP2,2013-04-01 20:21:00,
2013-04-01 16:26:00,36.0,16.0,30.05,WNW,302,22.0,24.0,44,0.00,,,0.00,WUHU216DAVISVP2,2013-04-01 20:26:00,
2013-04-01 16:31:00,35.6,15.7,30.05,NNW,327,16.0,24.0,44,0.00,,,0.00,WUHU216DAVISVP2,2013-04-01 20:31:00,
2013-04-01 16:36:00,35.6,16.2,30.05,West,275,6.0,20.0,45,0.00,,,0.00,WUHU216DAVISVP2,2013-04-01 20:36:00,
2013-04-01 16:42:00,35.7,15.2,30.05,West,279,12.0,24.0,43,0.00,,,0.00,WUHU216DAVISVP2,2013-04-01 20:42:00,
2013-04-01 16:47:00,35.5,15.6,30.05,WNW,290,14.0,24.0,44,0.00,,,0.00,WUHU216DAVISVP2,2013-04-01 20:47:00,
2013-04-01 16:52:00,35.8,14.8,30.05,WNW,302,8.0,24.0,42,0.00,,,0.00,WUHU216DAVISVP2,2013-04-01 20:52:00,
2013-04-01 16:57:00,35.9,15.4,30.05,NW,315,14.0,24.0,43,0.00,,,0.00,WUHU216DAVISVP2,2013-04-01 20:57:00,
2013-04-01 17:02:00,35.9,15.4,30.05,NW,311,8.0,22.0,43,0.00,,,0.00,WUHU216DAVISVP2,2013-04-01 21:02:00,
2013-04-01 17:07:00,35.7,13.5,30.05,NW,325,6.0,22.0,40,0.00,,,0.00,WUHU216DAVISVP2,2013-04-01 21:07:00,
2013-04-01 17:12:00,35.7,14.1,30.05,NNW,336,8.0,22.0,41,0.00,,,0.00,WUHU216DAVISVP2,2013-04-01 21:12:00,
2013-04-01 17:17:00,35.4,14.9,30.05,NW,309,16.0,24.0,43,0.00,,,0.00,WUHU216DAVISVP2,2013-04-01 21:17:00,
2013-04-01 17:22:00,35.6,15.1,30.05,WNW,298,16.0,24.0,43,0.00,,,0.00,WUHU216DAVISVP2,2013-04-01 21:22:00,
2013-04-01 17:27:00,36.0,14.9,30.05,NNW,344,10.0,20.0,42,0.00,,,0.00,WUHU216DAVISVP2,2013-04-01 21:27:00,
2013-04-01 17:32:00,36.1,14.5,30.05,NNE,28,4.0,24.0,41,0.00,,,0.00,WUHU216DAVISVP2,2013-04-01 21:32:00,
2013-04-01 17:38:00,36.2,15.7,30.05,NNW,333,8.0,24.0,43,0.00,,,0.00,WUHU216DAVISVP2,2013-04-01 21:38:00,
2013-04-01 17:43:00,36.0,15.5,30.05,NW,318,16.0,24.0,43,0.00,,,0.00,WUHU216DAVISVP2,2013-04-01 21:43:00,
2013-04-01 17:48:00,36.2,15.7,30.05,North,5,8.0,24.0,43,0.00,,,0.00,WUHU216DAVISVP2,2013-04-01 21:48:00,
2013-04-01 17:53:00,36.4,15.9,30.05,NW,304,12.0,22.0,43,0.00,,,0.00,WUHU216DAVISVP2,2013-04-01 21:53:00,
2013-04-01 17:58:00,36.3,15.2,30.05,West,274,10.0,22.0,42,0.00,,,0.00,WUHU216DAVISVP2,2013-04-01 21:58:00,
2013-04-01 18:03:00,36.0,14.4,30.05,WNW,300,10.0,22.0,41,0.00,,,0.00,WUHU216DAVISVP2,2013-04-01 22:03:00,
2013-04-01 18:08:00,35.6,14.6,30.05,WNW,301,16.0,22.0,42,0.00,,,0.00,WUHU216DAVISVP2,2013-04-01 22:08:00,
2013-04-01 18:13:00,35.4,14.4,30.05,WSW,258,12.0,20.0,42,0.00,,,0.00,WUHU216DAVISVP2,2013-04-01 22:13:00,
2013-04-01 18:18:00,35.3,14.9,30.05,West,272,14.0,18.0,43,0.00,,,0.00,WUHU216DAVISVP2,2013-04-01 22:18:00,
2013-04-01 18:23:00,35.5,16.1,30.05,WNW,293,6.0,16.0,45,0.00,,,0.00,WUHU216DAVISVP2,2013-04-01 22:23:00,
2013-04-01 18:28:00,35.3,15.4,30.05,NW,323,12.0,18.0,44,0.00,,,0.00,WUHU216DAVISVP2,2013-04-01 22:28:00,
2013-04-01 18:33:00,35.2,15.8,30.05,WSW,252,10.0,18.0,45,0.00,,,0.00,WUHU216DAVISVP2,2013-04-01 22:33:00,
2013-04-01 18:38:00,35.2,15.8,30.05,NW,310,10.0,16.0,45,0.00,,,0.00,WUHU216DAVISVP2,2013-04-01 22:38:00,
2013-04-01 18:43:00,35.0,15.1,30.05,NW,324,6.0,16.0,44,0.00,,,0.00,WUHU216DAVISVP2,2013-04-01 22:43:00,
2013-04-01 18:48:00,34.8,15.5,30.06,WNW,286,10.0,18.0,45,0.00,,,0.00,WUHU216DAVISVP2,2013-04-01 22:48:00,
2013-04-01 18:53:00,34.8,15.5,30.05,West,280,10.0,18.0,45,0.00,,,0.00,WUHU216DAVISVP2,2013-04-01 22:53:00,
2013-04-01 18:58:00,34.8,16.0,30.05,SSW,210,12.0,16.0,46,0.00,,,0.00,WUHU216DAVISVP2,2013-04-01 22:58:00,
2013-04-01 19:03:00,34.7,15.4,30.05,NNW,331,4.0,14.0,45,0.00,,,0.00,WUHU216DAVISVP2,2013-04-01 23:03:00,
2013-04-01 19:08:00,34.7,16.4,30.06,NW,317,6.0,14.0,47,0.00,,,0.00,WUHU216DAVISVP2,2013-04-01 23:08:00,
2013-04-01 19:13:00,34.7,16.9,30.05,NW,304,6.0,12.0,48,0.00,,,0.00,WUHU216DAVISVP2,2013-04-01 23:13:00,
2013-04-01 19:18:00,34.6,16.3,30.06,WNW,292,4.0,14.0,47,0.00,,,0.00,WUHU216DAVISVP2,2013-04-01 23:18:00,
2013-04-01 19:23:00,34.4,16.6,30.06,WNW,296,2.0,14.0,48,0.00,,,0.00,WUHU216DAVISVP2,2013-04-01 23:23:00,
2013-04-01 19:28:00,34.2,16.9,30.06,West,277,6.0,10.0,49,0.00,,,0.00,WUHU216DAVISVP2,2013-04-01 23:28:00,
2013-04-01 19:33:00,34.1,16.4,30.06,West,262,6.0,18.0,48,0.00,,,0.00,WUHU216DAVISVP2,2013-04-01 23:33:00,
2013-04-01 19:38:00,34.0,16.8,30.06,West,261,6.0,18.0,49,0.00,,,0.00,WUHU216DAVISVP2,2013-04-01 23:38:00,
2013-04-01 19:43:00,33.9,16.7,30.06,NW,304,6.0,14.0,49,0.00,,,0.00,WUHU216DAVISVP2,2013-04-01 23:43:00,
2013-04-01 19:48:00,33.8,17.1,30.06,West,263,10.0,14.0,50,0.00,,,0.00,WUHU216DAVISVP2,2013-04-01 23:48:00,
2013-04-01 19:53:00,33.6,17.3,30.06,NW,307,6.0,12.0,51,0.00,,,0.00,WUHU216DAVISVP2,2013-04-01 23:53:00,
2013-04-01 19:59:00,33.5,17.7,30.06,WNW,300,4.0,10.0,52,0.00,,,0.00,WUHU216DAVISVP2,2013-04-01 23:59:00,
2013-04-01 20:04:00,33.4,17.6,30.06,NW,304,4.0,8.0,52,0.00,,,0.00,WUHU216DAVISVP2,2013-04-02 00:04:00,
2013-04-01 20:09:00,33.4,18.1,30.06,NW,321,6.0,16.0,53,0.00,,,0.00,WUHU216DAVISVP2,2013-04-02 00:09:00,
2013-04-01 20:14:00,33.5,18.2,30.06,WNW,283,6.0,18.0,53,0.00,,,0.00,WUHU216DAVISVP2,2013-04-02 00:14:00,
2013-04-01 20:19:00,33.6,18.7,30.06,NW,310,4.0,18.0,54,0.00,,,0.00,WUHU216DAVISVP2,2013-04-02 00:19:00,
2013-04-01 20:24:00,33.5,19.1,30.06,West,278,4.0,10.0,55,0.00,,,0.00,WUHU216DAVISVP2,2013-04-02 00:24:00,
2013-04-01 20:29:00,33.6,19.6,30.06,WNW,294,2.0,10.0,56,0.00,,,0.00,WUHU216DAVISVP2,2013-04-02 00:29:00,
2013-04-01 20:34:00,33.6,19.6,30.06,NW,317,4.0,8.0,56,0.00,,,0.00,WUHU216DAVISVP2,2013-04-02 00:34:00,
2013-04-01 20:39:00,33.6,20.4,30.07,NNW,329,2.0,10.0,58,0.00,,,0.00,WUHU216DAVISVP2,2013-04-02 00:39:00,
2013-04-01 20:44:00,33.6,20.8,30.07,NW,321,8.0,10.0,59,0.00,,,0.00,WUHU216DAVISVP2,2013-04-02 00:44:00,
2013-04-01 20:49:00,33.6,21.2,30.07,NNW,336,4.0,10.0,60,0.00,,,0.00,WUHU216DAVISVP2,2013-04-02 00:49:00,
2013-04-01 20:54:00,33.5,20.3,30.07,NW,312,8.0,12.0,58,0.00,,,0.00,WUHU216DAVISVP2,2013-04-02 00:54:00,
2013-04-01 20:59:00,33.4,19.8,30.07,NW,312,0.0,12.0,57,0.00,,,0.00,WUHU216DAVISVP2,2013-04-02 00:59:00,
2013-04-01 21:04:00,33.3,20.1,30.08,NW,316,4.0,12.0,58,0.00,,,0.00,WUHU216DAVISVP2,2013-04-02 01:04:00,
2013-04-01 21:09:00,33.2,20.0,30.08,WNW,303,4.0,14.0,58,0.00,,,0.00,WUHU216DAVISVP2,2013-04-02 01:09:00,
2013-04-01 21:14:00,33.1,19.5,30.08,NNW,332,4.0,14.0,57,0.00,,,0.00,WUHU216DAVISVP2,2013-04-02 01:14:00,
2013-04-01 21:19:00,33.0,19.9,30.08,NW,323,6.0,12.0,58,0.00,,,0.00,WUHU216DAVISVP2,2013-04-02 01:19:00,
2013-04-01 21:24:00,33.0,19.9,30.08,NW,311,0.0,12.0,58,0.00,,,0.00,WUHU216DAVISVP2,2013-04-02 01:24:00,
2013-04-01 21:29:00,32.9,19.8,30.09,WNW,290,6.0,12.0,58,0.00,,,0.00,WUHU216DAVISVP2,2013-04-02 01:29:00,
2013-04-01 21:34:00,32.9,19.3,30.09,NNW,331,4.0,16.0,57,0.00,,,0.00,WUHU216DAVISVP2,2013-04-02 01:34:00,
2013-04-01 21:39:00,32.8,19.3,30.09,NW,323,6.0,16.0,57,0.00,,,0.00,WUHU216DAVISVP2,2013-04-02 01:39:00,
2013-04-01 21:45:00,32.8,19.7,30.09,North,5,2.0,12.0,58,0.00,,,0.00,WUHU216DAVISVP2,2013-04-02 01:45:00,
2013-04-01 21:50:00,32.7,19.2,30.09,WNW,299,10.0,16.0,57,0.00,,,0.00,WUHU216DAVISVP2,2013-04-02 01:50:00,
2013-04-01 21:55:00,32.6,19.1,30.09,NW,316,12.0,16.0,57,0.00,,,0.00,WUHU216DAVISVP2,2013-04-02 01:55:00,
2013-04-01 22:00:00,32.5,18.5,30.10,NW,306,8.0,16.0,56,0.00,,,0.00,WUHU216DAVISVP2,2013-04-02 02:00:00,
2013-04-01 22:05:00,32.4,18.5,30.10,NW,319,4.0,16.0,56,0.00,,,0.00,WUHU216DAVISVP2,2013-04-02 02:05:00,
2013-04-01 22:10:00,32.4,18.5,30.10,North,5,4.0,16.0,56,0.00,,,0.00,WUHU216DAVISVP2,2013-04-02 02:10:00,
2013-04-01 22:15:00,32.4,18.9,30.10,North,5,8.0,16.0,57,0.00,,,0.00,WUHU216DAVISVP2,2013-04-02 02:15:00,
2013-04-01 22:20:00,32.3,19.2,30.11,NNW,336,4.0,16.0,58,0.00,,,0.00,WUHU216DAVISVP2,2013-04-02 02:20:00,
2013-04-01 22:25:00,32.2,19.1,30.11,NW,323,2.0,14.0,58,0.00,,,0.00,WUHU216DAVISVP2,2013-04-02 02:25:00,
2013-04-01 22:30:00,32.1,18.6,30.11,WNW,302,12.0,14.0,57,0.00,,,0.00,WUHU216DAVISVP2,2013-04-02 02:30:00,
2013-04-01 22:35:00,32.0,18.9,30.11,NE,34,6.0,22.0,58,0.00,,,0.00,WUHU216DAVISVP2,2013-04-02 02:35:00,
2013-04-01 22:40:00,32.0,19.3,30.11,NNW,343,8.0,22.0,59,0.00,,,0.00,WUHU216DAVISVP2,2013-04-02 02:40:00,
2013-04-01 22:45:00,31.9,19.2,30.11,WNW,302,4.0,20.0,59,0.00,,,0.00,WUHU216DAVISVP2,2013-04-02 02:45:00,
2013-04-01 22:50:00,31.9,19.6,30.11,WNW,292,4.0,20.0,60,0.00,,,0.00,WUHU216DAVISVP2,2013-04-02 02:50:00,
2013-04-01 22:55:00,31.8,19.5,30.11,WNW,300,12.0,16.0,60,0.00,,,0.00,WUHU216DAVISVP2,2013-04-02 02:55:00,
2013-04-01 23:00:00,31.7,19.4,30.11,NW,305,6.0,16.0,60,0.00,,,0.00,WUHU216DAVISVP2,2013-04-02 03:00:00,
2013-04-01 23:05:00,31.6,19.3,30.12,NW,307,4.0,14.0,60,0.00,,,0.00,WUHU216DAVISVP2,2013-04-02 03:05:00,
2013-04-01 23:10:00,31.5,18.9,30.12,WNW,300,8.0,14.0,59,0.00,,,0.00,WUHU216DAVISVP2,2013-04-02 03:10:00,
2013-04-01 23:15:00,31.4,19.2,30.12,NW,309,6.0,14.0,60,0.00,,,0.00,WUHU216DAVISVP2,2013-04-02 03:15:00,
2013-04-01 23:20:00,31.4,18.8,30.12,WNW,291,8.0,16.0,59,0.00,,,0.00,WUHU216DAVISVP2,2013-04-02 03:20:00,
2013-04-01 23:25:00,31.4,19.2,30.12,NW,321,4.0,16.0,60,0.00,,,0.00,WUHU216DAVISVP2,2013-04-02 03:25:00,
2013-04-01 23:30:00,31.3,19.1,30.12,NW,307,12.0,18.0,60,0.00,,,0.00,WUHU216DAVISVP2,2013-04-02 03:30:00,
2013-04-01 23:35:00,31.2,19.4,30.12,NNE,22,4.0,18.0,61,0.00,,,0.00,WUHU216DAVISVP2,2013-04-02 03:35:00,
2013-04-01 23:40:00,31.0,19.2,30.12,NW,304,2.0,16.0,61,0.00,,,0.00,WUHU216DAVISVP2,2013-04-02 03:40:00,
2013-04-01 23:46:00,30.9,19.1,30.12,NNE,24,0.0,16.0,61,0.00,,,0.00,WUHU216DAVISVP2,2013-04-02 03:46:00,
2013-04-01 23:52:00,30.8,19.0,30.12,NE,37,10.0,12.0,61,0.00,,,0.00,WUHU216DAVISVP2,2013-04-02 03:52:00,
2013-04-01 23:57:00,30.6,19.6,30.12,NW,316,6.0,16.0,63,0.00,,,0.00,WUHU216DAVISVP2,2013-04-02 03:57:00,